sat.trackr.live / text

‹ back to catalog

EUTELSAT KONNECT

NORAD 45027 · 2020-005B

PAYLOAD ACTIVE UNKNOWN

§ Identity

Operator
Country
EUTE
Launch date
2020-01-16
Launch site
FRGUI
Launch vehicle
Mass (kg)
RCS (m²)

Purposes: comms

External: N2YO · Heavens-Above · Gunter

§ Orbital elements

Epoch: 2026-05-25T03:46:39.567360Z

Period
1,436.12 min
Inclination
0.0712°
Eccentricity
0.0000909
Mean motion
1.00270521 rev/d
Perigee alt
35,783.1 km
Apogee alt
35,790.8 km
Semi-major
42,165.1 km
B*
0.0000e+0
RAAN
98.1588°
Arg perigee
171.0776°
Mean anomaly
37.3810°
Rev number
2,410

§ Raw data

EUTELSAT KONNECT1 45027U 20005B   26145.15740240  .00000047  00000+0  00000+0 0  99952 45027   0.0712  98.1588 0000909 171.0776  37.3810  1.00270521 24103

JSON: /api/v1/satellites/45027 · /tle

For live sub-satellite position, see the globe view (requires WebGL).

§ Visibility from observer

Set your observer location to see the next 7 days of passes ≥ 10°. The values pass through the URL so the page stays shareable.

No JS? Fill the form by hand. The geolocation button needs JavaScript.